Location: Oberwangen
(47.4286°N, 8.9679°E)
Time: 00:50:28
(UTC+00:00)

Cosmos 2173 Rocket - Visible Passes

Search period start: 23 October 2021 00:00
Search period end: 02 November 2021 00:00
Orbit: 945 x 1000 km, 83.0° (Epoch: 22 October)

Date Brightness Start Highest point End Pass type
(mag) Time Alt. Az. Time Alt. Az. Time Alt. Az.
23 Oct 6.5 04:36:42 10° NNE 04:41:32 22° ENE 04:46:22 10° ESE visible
23 Oct 4.4 18:09:22 10° SSE 18:14:54 36° E 18:20:31 10° NNE visible
23 Oct 5.0 19:54:17 10° SW 20:00:07 42° WNW 20:06:04 10° N visible
24 Oct 5.8 05:00:41 10° N 05:06:30 35° ENE 05:12:16 10° SE visible
24 Oct 3.9 18:33:09 10° S 18:39:12 60° E 18:45:24 10° NNE visible
24 Oct 5.8 20:19:56 10° WSW 20:25:01 26° WNW 20:30:10 10° NNW visible
25 Oct 7.0 03:42:38 10° NE 03:44:26 11° NE 03:46:14 10° ENE visible
25 Oct 4.8 05:24:57 10° N 05:31:16 58° ENE 05:37:31 10° SSE visible
25 Oct 5.2 17:15:18 10° ESE 17:19:13 18° E 17:23:10 10° NE visible
25 Oct 4.0 18:57:28 10° S 19:03:41 83° W 19:10:01 10° N visible
25 Oct 6.5 20:46:25 10° W 20:50:05 16° WNW 20:53:48 10° NNW visible
26 Oct 6.6 04:05:18 10° NNE 04:09:39 19° ENE 04:13:59 10° ESE visible
26 Oct 4.7 17:38:03 10° SE 17:43:18 30° E 17:48:38 10° NNE visible
26 Oct 4.7 19:22:19 10° SSW 19:28:19 50° WNW 19:34:28 10° N visible
27 Oct 6.0 04:29:08 10° N 04:34:41 30° ENE 04:40:11 10° SE visible
27 Oct 4.1 18:01:37 10° SSE 18:07:33 50° E 18:13:37 10° NNE visible
27 Oct 5.6 19:47:44 10° SW 19:53:09 30° WNW 19:58:40 10° N visible
28 Oct 5.1 04:53:19 10° N 04:59:31 49° ENE 05:05:38 10° SSE visible
28 Oct 5.4 16:44:32 10° ESE 16:47:42 15° ENE 16:50:55 10° NE visible
28 Oct 3.9 18:25:45 10° S 18:31:58 84° E 18:38:20 10° N visible
28 Oct 6.3 20:13:51 10° WSW 20:18:10 19° WNW 20:22:31 10° NNW visible
29 Oct 6.7 03:34:01 10° NNE 03:37:44 16° ENE 03:41:26 10° E visible
29 Oct 4.3 05:17:44 10° N 05:24:10 80° E 05:30:32 10° SSE visible
29 Oct 4.9 17:06:50 10° SE 17:11:44 25° E 17:16:42 10° NNE visible
29 Oct 4.5 18:50:25 10° SSW 18:56:33 60° WNW 19:02:50 10° N visible
29 Oct 6.8 20:41:28 10° WNW 20:43:22 11° NW 20:45:19 10° NW visible
30 Oct 6.2 03:57:38 10° NNE 04:02:50 25° ENE 04:07:59 10° ESE visible
30 Oct 4.3 17:30:09 10° SSE 17:35:56 42° E 17:41:49 10° NNE visible
30 Oct 5.4 19:15:37 10° SW 19:21:19 36° WNW 19:27:08 10° N visible
31 Oct 5.4 04:21:43 10° N 04:27:44 41° ENE 04:33:40 10° SE visible
31 Oct 3.9 17:54:06 10° S 18:00:17 70° E 18:06:36 10° NNE visible
31 Oct 6.1 19:41:27 10° WSW 19:46:16 23° WNW 19:51:08 10° NNW visible
01 Nov 6.8 03:02:55 10° NNE 03:05:47 13° ENE 03:08:39 10° E visible
01 Nov 4.5 04:46:04 10° N 04:52:26 67° ENE 04:58:45 10° SSE visible
01 Nov 5.1 16:35:43 10° SE 16:40:11 21° E 16:44:41 10° NE visible
01 Nov 4.2 18:18:35 10° SSW 18:24:48 72° W 18:31:11 10° N visible
01 Nov 6.7 20:08:19 10° W 20:11:24 14° WNW 20:14:32 10° NNW visible
